Location: Kuffner-Sternwarte
(48.2130°N, 16.2960°E)
Time: 08:13:59
(UTC+02:00)

COROT - Pass Details

Date: 17 January 2018
Orbit: 602 x 887 km, 90.0° (Epoch: 16 July)

Event Time Altitude Azimuth Distance (km) Brightness Sun altitude
Rises 18:02:35 0° 208° (SSW) 3,132 9.8 -14.9°
Reaches altitude 10° 18:05:16 10° 221° (SW) 2,165 9.2 -15.3°
Maximum altitude 18:09:14 26° 277° (W) 1,324 8.0 -15.9°
Drops below altitude 10° 18:13:00 10° 334° (NNW) 2,050 8.4 -16.5°
Sets 18:15:30 0° 348° (NNW) 2,930 9.0 -16.9°
